EW9515 Weather Reports


Display with metric or nautical units.
time (UTC)temp
F
wind
direction
speed
MPH
gust
MPH
rain 1hr
in
rain 24hr
in
rain mn
in
humidity
%
barometer
mb
20260901023428 0 90 2.0 3.0 0.00 0.00 0.00
20260901022439 0 68 5.0 8.0 0.00 0.00 0.00
20260901021432 0 68 5.0 9.0 0.00 0.00 0.00
20260901020429 0 45 1.0 2.0 0.00 0.00 0.00
20260901015423 0 68 5.0 10.0 0.00 0.00 0.00
20260901014430 0 45 6.0 9.0 0.00 0.00 0.00
20260901013429 0 68 6.0 13.0 0.00 0.00 0.00
20260901012423 0 113 4.0 7.0 0.00 0.00 0.00
20260901011430 0 23 5.0 7.0 0.00 0.00 0.00
20260901010429 0 113 4.0 7.0 0.00 0.00 0.00
20260901005417 0 90 1.0 2.0 0.00 0.00 0.00
20260901004432 0 113 4.0 9.0 0.00 0.00 0.00
20260901003433 0 113 2.0 4.0 0.00 0.00 0.00
20260901002418 0 225 3.0 4.0 0.00 0.00 0.00
20260901001439 0 158 1.0 1.0 0.00 0.00 0.00
20260901000528 0 0.0 0.0 0.00 0.00 0.00
20260901000130 0 225 6.0 0.0 0.00 0.00 0.00
20260831235117 0 203 5.0 8.0 0.00 0.00 0.00
20260831234210 0 203 3.0 5.0 0.00 0.00 0.00
20260831233129 0 158 3.0 4.0 0.00 0.00 0.00
20260831232117 0 225 4.0 5.0 0.00 0.00 0.00
20260831231129 0 225 5.0 7.0 0.00 0.00 0.00
20260831230128 0 158 2.0 4.0 0.00 0.00 0.00
20260831225117 0 180 5.0 9.0 0.00 0.00 0.00
20260831224129 0 113 5.0 9.0 0.00 0.00 0.00
20260831223214 0 135 1.0 2.0 0.00 0.00 0.00
20260831222137 0 135 3.0 5.0 0.00 0.00 0.00
20260831221129 0 158 2.0 3.0 0.00 0.00 0.00
20260831220129 0 158 1.0 2.0 0.00 0.00 0.00
20260831215117 0 158 1.0 2.0 0.00 0.00 0.00
20260831214129 0 158 1.0 2.0 0.00 0.00 0.00
20260831213127 0 158 1.0 2.0 0.00 0.00 0.00
20260831212137 0 158 1.0 2.0 0.00 0.00 0.00
20260831211154 0 158 1.0 2.0 0.00 0.00 0.00
20260831210128 0 158 1.0 1.0 0.00 0.00 0.00
20260831205117 0 158 1.0 1.0 0.00 0.00 0.00
20260831204130 0 0.0 1.0 0.00 0.00 0.00
20260831203127 0 0.0 1.0 0.00 0.00 0.00
20260831202117 0 0.0 0.0 0.00 0.00 0.00
20260831201131 0 0.0 0.0 0.00 0.00 0.00
20260831200128 0 0.0 0.0 0.00 0.00 0.00
20260831195138 0 0.0 1.0 0.00 0.00 0.00
20260831194149 0 0.0 1.0 0.00 0.00 0.00
20260831193148 0 0.0 0.0 0.00 0.00 0.00
20260831192117 0 0.0 0.0 0.00 0.00 0.00
20260831191129 0 158 1.0 2.0 0.00 0.00 0.00
20260831190127 0 158 1.0 2.0 0.00 0.00 0.00
20260831185122 0 180 2.0 3.0 0.00 0.00 0.00
20260831184128 0 203 2.0 3.0 0.00 0.00 0.00
20260831183147 0 180 3.0 5.0 0.00 0.00 0.00
20260831182117 0 158 2.0 3.0 0.00 0.00 0.00
20260831181128 0 158 2.0 4.0 0.00 0.00 0.00
20260831180126 0 158 3.0 4.0 0.00 0.00 0.00
20260831175117 0 203 4.0 8.0 0.00 0.00 0.00
20260831174128 0 180 1.0 2.0 0.00 0.00 0.00
20260831173127 0 180 2.0 3.0 0.00 0.00 0.00
20260831172137 0 180 3.0 6.0 0.00 0.00 0.00
20260831171148 0 0.0 1.0 0.00 0.00 0.00
20260831170128 0 0.0 0.0 0.00 0.00 0.00
20260831165137 0 0.0 0.0 0.00 0.00 0.00
20260831164130 0 0.0 0.0 0.00 0.00 0.00
20260831163128 0 0.0 0.0 0.00 0.00 0.00
20260831162137 0 0.0 1.0 0.00 0.00 0.00
20260831161128 0 158 1.0 1.0 0.00 0.00 0.00
20260831160127 0 158 1.0 2.0 0.00 0.00 0.00
20260831155118 0 158 1.0 2.0 0.00 0.00 0.00
20260831154132 0 158 1.0 2.0 0.00 0.00 0.00
20260831153129 0 158 1.0 3.0 0.00 0.00 0.00
20260831152118 0 158 2.0 2.0 0.00 0.00 0.00
20260831151130 0 158 1.0 1.0 0.00 0.00 0.00
20260831150133 0 158 2.0 3.0 0.00 0.00 0.00
20260831145118 0 158 2.0 3.0 0.00 0.00 0.00
20260831144129 0 203 1.0 2.0 0.00 0.00 0.00
20260831143128 0 203 1.0 2.0 0.00 0.00 0.00
20260831142118 0 203 1.0 1.0 0.00 0.00 0.00
20260831141129 0 203 1.0 2.0 0.00 0.00 0.00
20260831140129 0 203 2.0 2.0 0.00 0.00 0.00
20260831135203 0 203 1.0 1.0 0.00 0.00 0.00
20260831134129 0 203 1.0 1.0 0.00 0.00 0.00
20260831133128 0 203 1.0 2.0 0.00 0.00 0.00
20260831132117 0 203 2.0 2.0 0.00 0.00 0.00
20260831131131 0 203 2.0 3.0 0.00 0.00 0.00
20260831130128 0 225 2.0 4.0 0.00 0.00 0.00
20260831125122 0 225 2.0 3.0 0.00 0.00 0.00
20260831124132 0 180 3.0 4.0 0.00 0.00 0.00
20260831123128 0 158 1.0 3.0 0.00 0.00 0.00
20260831122122 0 158 1.0 2.0 0.00 0.00 0.00
20260831121130 0 158 2.0 3.0 0.00 0.00 0.00
20260831120127 0 158 1.0 2.0 0.00 0.00 0.00
20260831115117 0 158 1.0 1.0 0.00 0.00 0.00
20260831114135 0 158 1.0 1.0 0.00 0.00 0.00
20260831113148 0 0.0 1.0 0.00 0.00 0.00
20260831112157 0 0.0 1.0 0.00 0.00 0.00
20260831111139 0 0.0 0.0 0.00 0.00 0.00
20260831110128 0 0.0 1.0 0.00 0.00 0.00
20260831105117 0 0.0 1.0 0.00 0.00 0.00
20260831104140 0 158 1.0 2.0 0.00 0.00 0.00
20260831103127 0 158 2.0 4.0 0.00 0.00 0.00
20260831102137 0 158 2.0 2.0 0.00 0.00 0.00
20260831101130 0 158 1.0 2.0 0.00 0.00 0.00
20260831100126 0 158 2.0 3.0 0.00 0.00 0.00
20260831095117 0 158 1.0 2.0 0.00 0.00 0.00
20260831094130 0 158 1.0 2.0 0.00 0.00 0.00
20260831093138 0 158 1.0 2.0 0.00 0.00 0.00
20260831092117 0 158 1.0 3.0 0.00 0.00 0.00
20260831091129 0 158 2.0 3.0 0.00 0.00 0.00
20260831090132 0 158 1.0 2.0 0.00 0.00 0.00
20260831085121 0 158 2.0 3.0 0.00 0.00 0.00
20260831084129 0 158 1.0 2.0 0.00 0.00 0.00
20260831083127 0 180 2.0 3.0 0.00 0.00 0.00
20260831082117 0 158 3.0 4.0 0.00 0.00 0.00
20260831081135 0 158 2.0 3.0 0.00 0.00 0.00
20260831080128 0 158 2.0 4.0 0.00 0.00 0.00
20260831075124 0 158 3.0 4.0 0.00 0.00 0.00
20260831074133 0 180 2.0 4.0 0.00 0.00 0.00
20260831073129 0 135 3.0 5.0 0.00 0.00 0.00
20260831072134 0 180 2.0 3.0 0.00 0.00 0.00
20260831071131 0 203 3.0 5.0 0.00 0.00 0.00
20260831070129 0 113 1.0 3.0 0.00 0.00 0.00
20260831065119 0 113 3.0 9.0 0.00 0.00 0.00
20260831064131 0 135 2.0 7.0 0.00 0.00 0.00
20260831063127 0 90 3.0 7.0 0.00 0.00 0.00
20260831062118 0 203 3.0 5.0 0.00 0.00 0.00
20260831061130 0 113 1.0 2.0 0.00 0.00 0.00
20260831060209 0 135 5.0 8.0 0.00 0.00 0.00
20260831055118 0 113 3.0 6.0 0.00 0.00 0.00
20260831054156 0 90 4.0 7.0 0.00 0.00 0.00
20260831053129 0 113 7.0 9.0 0.00 0.00 0.00
20260831052118 0 90 3.0 6.0 0.00 0.00 0.00
20260831051201 0 90 3.0 4.0 0.00 0.00 0.00
20260831050130 0 68 5.0 9.0 0.00 0.00 0.00
20260831045139 0 135 3.0 8.0 0.00 0.00 0.00
20260831044136 0 113 5.0 7.0 0.00 0.00 0.00
20260831043130 0 90 4.0 9.0 0.00 0.00 0.00
20260831042139 0 113 6.0 12.0 0.00 0.00 0.00
20260831041216 0 113 3.0 6.0 0.00 0.00 0.00
20260831040129 0 113 4.0 10.0 0.00 0.00 0.00
20260831035123 0 135 8.0 11.0 0.00 0.00 0.00
20260831034130 0 90 3.0 6.0 0.00 0.00 0.00
20260831033128 0 90 4.0 9.0 0.00 0.00 0.00
20260831032119 0 68 6.0 10.0 0.00 0.00 0.00
20260831031129 0 68 5.0 8.0 0.00 0.00 0.00
20260831030128 0 90 5.0 11.0 0.00 0.00 0.00
20260831025138 0 45 4.0 7.0 0.00 0.00 0.00